Location: Gro�sch�nbrunn
(49.5760°N, 11.8868°E)
Time: 15:12:25
(UTC+00:00)

ISS - Pass Details

Date: 27 November 2020
Orbit: 418 x 419 km, 51.6° (Epoch: 17 January)

Event Time Altitude Azimuth Distance (km) Brightness Sun altitude
Rises 17:49:42 0° 274° (W) 2,365 1.4 -23.9°
Reaches altitude 10° 17:51:49 10° 278° (W) 1,501 0.1 -24.3°
Enters shadow 17:53:54 33° 294° (WNW) 727 -2.1 -24.6°
